Volver al catálogo

STARLINK-36758

ActivoComunicacionesVLEO
NORAD 67926·PAYLOAD·🇺🇸 United States

Lanzado Feb 22, 2026 desde Vandenberg Space Force Base

Loading…

Próximos Pases (próximas 24 horas)

TLE

ActualizadoSource: CelesTrak SupGP

Época: Sep 14, 2026, 23:00 UTC

1 67926C 26036Y   26257.95881944  .00029381  00000+0  10643-2 0  2572
2 67926  43.0027 256.3740 0001478 263.8242 266.5031 15.27560759    13

Sigue STARLINK-36758 en tiempo real con AllMySat

Download on the App Store